Location: Narvik
(68.4360°N, 17.4370°E)
Time: 00:14:39
(UTC+02:00)

NUDT-PHONESAT - Visible Passes

Search period start: 21 September 2019 00:00
Search period end: 01 October 2019 00:00
Orbit: 488 x 505 km, 97.4° (Epoch: 20 September)

Date Brightness Start Highest point End Pass type
(mag) Time Alt. Az. Time Alt. Az. Time Alt. Az.
23 Sep ? 20:01:56 10° WSW 20:03:44 13° W 20:05:34 10° NW visible
24 Sep ? 19:40:16 10° SW 19:42:47 17° W 19:45:19 10° NW visible
27 Sep ? 20:13:39 10° W 20:14:50 11° WNW 20:16:01 10° WNW visible
28 Sep ? 05:52:20 10° NE 05:53:45 12° ENE 05:55:11 10° E visible
28 Sep ? 19:51:40 10° WSW 19:53:50 15° W 19:56:01 10° NW visible
29 Sep ? 19:30:09 10° SW 19:32:53 19° W 19:35:39 10° NW visible
